Location: Chakepay
(13.3931°S, 72.1925°W)
Time: 16:53:02
(UTC+00:00)

CZ-4B R/B - Pass Details

Date: 15 November 2019
Orbit: 809 x 882 km, 99.1° (Epoch: 09 December)

Event Time Altitude Azimuth Distance (km) Brightness Sun altitude
Rises 09:38:46 0° 18° (NNE) 3,402 6.3 -8.3°
Reaches altitude 10° 09:41:06 10° 20° (NNE) 2,482 5.6 -7.8°
Maximum altitude 09:46:37 73° 104° (ESE) 910 3.6 -6.5°
Drops below altitude 10° 09:52:15 10° 187° (S) 2,540 5.9 -5.2°
Sets 09:54:40 0° 189° (S) 3,488 6.6 -4.7°
